EN

Hourly Weather La Barca

Today, 5 August, Thursday

Time Temperature Precipitation Wind Pressure Humidity
00:00 +18°C° 0.1 mm 1 mps 636 mmHg 98%
01:00 +18°C° 0.1 mm 1 mps 636 mmHg 97%
02:00 +18°C° 0.1 mm 1 mps 636 mmHg 97%
03:00 +18°C° 0.1 mm 1 mps 636 mmHg 97%
04:00 +16°C° 0.1 mm 0 mps 636 mmHg 97%
05:00 +15°C° 0.1 mm 0 mps 636 mmHg 97%
06:00 +16°C° 0.1 mm 0 mps 636 mmHg 96%
07:00 +17°C° 0.1 mm 0 mps 637 mmHg 94%
08:00 +19°C° 0.1 mm 1 mps 637 mmHg 92%
09:00 +21°C° 0.1 mm 1 mps 637 mmHg 83%
10:00 +23°C° 0.1 mm 1 mps 638 mmHg 74%
11:00 +25°C° 0.1 mm 1 mps 638 mmHg 64%
12:00 +26°C° 0.4 mm 1 mps 637 mmHg 63%
13:00 +26°C° 0.4 mm 1 mps 637 mmHg 62%
14:00 +27°C° 0.4 mm 1 mps 636 mmHg 60%
15:00 +25°C° 1.1 mm 1 mps 636 mmHg 71%
16:00 +23°C° 1.1 mm 1 mps 635 mmHg 81%
17:00 +21°C° 1.1 mm 1 mps 635 mmHg 92%
18:00 +20°C° 2.5 mm 1 mps 635 mmHg 93%
19:00 +20°C° 2.5 mm 1 mps 635 mmHg 95%
20:00 +20°C° 2.5 mm 1 mps 636 mmHg 97%
21:00 +19°C° 0.1 mm 1 mps 636 mmHg 97%
22:00 +17°C° 0.1 mm 0 mps 636 mmHg 97%
23:00 +17°C° 0.1 mm 0 mps 636 mmHg 96%

Tomorrow, 6 August, Friday

Time Temperature Precipitation Wind Pressure Humidity
00:00 +17°C° 0.1 mm 0 mps 636 mmHg 96%
01:00 +17°C° 0.1 mm 0 mps 636 mmHg 96%
02:00 +17°C° 0.1 mm 0 mps 635 mmHg 96%
03:00 +17°C° 0.1 mm 0 mps 636 mmHg 96%
04:00 +17°C° 0.1 mm 0 mps 636 mmHg 96%
05:00 +18°C° 0.1 mm 1 mps 636 mmHg 97%
06:00 +19°C° 0.2 mm 1 mps 636 mmHg 94%
07:00 +20°C° 0.2 mm 1 mps 637 mmHg 92%
08:00 +21°C° 0.2 mm 1 mps 637 mmHg 89%
09:00 +23°C° 0.5 mm 1 mps 637 mmHg 81%
10:00 +23°C° 0.5 mm 0 mps 637 mmHg 72%
11:00 +25°C° 0.5 mm 0 mps 638 mmHg 64%
12:00 +27°C° 0.6 mm 1 mps 637 mmHg 65%
13:00 +26°C° 0.6 mm 1 mps 636 mmHg 66%
14:00 +26°C° 0.6 mm 1 mps 636 mmHg 68%
15:00 +25°C° 1.5 mm 1 mps 636 mmHg 74%
16:00 +25°C° 1.5 mm 1 mps 635 mmHg 80%
17:00 +22°C° 1.5 mm 0 mps 635 mmHg 86%
18:00 +22°C° 2 mm 1 mps 635 mmHg 89%
19:00 +21°C° 2 mm 1 mps 635 mmHg 91%
20:00 +20°C° 2 mm 1 mps 635 mmHg 94%
21:00 +19°C° 1.2 mm 1 mps 636 mmHg 95%
22:00 +19°C° 1.2 mm 1 mps 636 mmHg 96%
23:00 +19°C° 1.2 mm 1 mps 636 mmHg 97%

Day after tomorrow, 7 August, Saturday

Time Temperature Precipitation Wind Pressure Humidity
00:00 +18°C° 0.6 mm 1 mps 636 mmHg 97%
01:00 +16°C° 0.6 mm 0 mps 635 mmHg 97%
02:00 +16°C° 0.6 mm 0 mps 635 mmHg 97%
03:00 +15°C° 0 mm 0 mps 635 mmHg 97%
04:00 +15°C° 0 mm 0 mps 635 mmHg 97%
05:00 +15°C° 0 mm 0 mps 635 mmHg 97%
06:00 +18°C° 0 mm 1 mps 636 mmHg 94%
07:00 +20°C° 0 mm 1 mps 636 mmHg 90%
08:00 +21°C° 0 mm 1 mps 637 mmHg 87%
09:00 +22°C° 0.1 mm 0 mps 637 mmHg 76%
10:00 +24°C° 0.1 mm 0 mps 637 mmHg 66%
11:00 +26°C° 0.1 mm 0 mps 638 mmHg 55%
12:00 +28°C° 0.3 mm 1 mps 637 mmHg 54%
13:00 +29°C° 0.3 mm 1 mps 636 mmHg 53%
14:00 +29°C° 0.3 mm 1 mps 636 mmHg 52%
15:00 +27°C° 0.6 mm 1 mps 635 mmHg 60%
16:00 +26°C° 0.6 mm 1 mps 635 mmHg 69%
17:00 +24°C° 0.6 mm 1 mps 634 mmHg 77%
18:00 +23°C° 2.3 mm 1 mps 634 mmHg 83%
19:00 +21°C° 2.3 mm 1 mps 634 mmHg 90%
20:00 +18°C° 2.3 mm 2 mps 634 mmHg 96%
21:00 +19°C° 0.3 mm 1 mps 635 mmHg 96%
22:00 +18°C° 0.3 mm 1 mps 635 mmHg 96%
23:00 +18°C° 0.3 mm 1 mps 635 mmHg 97%

8 August, Sunday

Time Temperature Precipitation Wind Pressure Humidity
00:00 +18°C° 0.4 mm 1 mps 635 mmHg 96%
01:00 +18°C° 0.4 mm 1 mps 635 mmHg 96%
02:00 +16°C° 0.4 mm 0 mps 634 mmHg 96%
03:00 +18°C° 0 mm 1 mps 634 mmHg 96%
04:00 +16°C° 0 mm 1 mps 634 mmHg 96%
05:00 +16°C° 0 mm 1 mps 634 mmHg 96%
06:00 +18°C° 0 mm 1 mps 635 mmHg 92%
07:00 +20°C° 0 mm 1 mps 636 mmHg 88%
08:00 +21°C° 0 mm 1 mps 636 mmHg 84%
09:00 +24°C° 0 mm 1 mps 637 mmHg 74%
10:00 +26°C° 0 mm 1 mps 637 mmHg 63%
11:00 +29°C° 0 mm 1 mps 637 mmHg 53%
12:00 +28°C° 0.3 mm 1 mps 636 mmHg 54%
13:00 +28°C° 0.3 mm 1 mps 636 mmHg 54%
14:00 +28°C° 0.3 mm 2 mps 635 mmHg 55%
15:00 +27°C° 0.8 mm 2 mps 634 mmHg 64%
16:00 +25°C° 0.8 mm 1 mps 634 mmHg 73%
17:00 +23°C° 0.8 mm 1 mps 633 mmHg 82%
18:00 +22°C° 1.8 mm 1 mps 634 mmHg 86%
19:00 +20°C° 1.8 mm 1 mps 634 mmHg 91%
20:00 +19°C° 1.8 mm 1 mps 634 mmHg 95%
21:00 +19°C° 0.2 mm 1 mps 635 mmHg 96%
22:00 +19°C° 0.2 mm 1 mps 635 mmHg 96%
23:00 +17°C° 0.2 mm 0 mps 635 mmHg 96%

9 August, Monday

Time Temperature Precipitation Wind Pressure Humidity
00:00 +17°C° 0.2 mm 0 mps 635 mmHg 96%
01:00 +16°C° 0.2 mm 0 mps 635 mmHg 96%
02:00 +16°C° 0.2 mm 0 mps 634 mmHg 96%
03:00 +16°C° 0.1 mm 0 mps 634 mmHg 96%
04:00 +18°C° 0.1 mm 1 mps 634 mmHg 96%
05:00 +16°C° 0.1 mm 1 mps 634 mmHg 97%
06:00 +19°C° 0 mm 1 mps 635 mmHg 93%
07:00 +20°C° 0 mm 1 mps 635 mmHg 89%
08:00 +21°C° 0 mm 1 mps 636 mmHg 85%
09:00 +23°C° 0.1 mm 1 mps 636 mmHg 76%
10:00 +25°C° 0.1 mm 1 mps 636 mmHg 67%
11:00 +27°C° 0.1 mm 1 mps 637 mmHg 58%
12:00 +27°C° 0.4 mm 1 mps 636 mmHg 57%
13:00 +28°C° 0.4 mm 2 mps 636 mmHg 57%
14:00 +28°C° 0.4 mm 2 mps 635 mmHg 56%
15:00 +26°C° 1 mm 1 mps 635 mmHg 65%
16:00 +25°C° 1 mm 1 mps 634 mmHg 74%
17:00 +23°C° 1 mm 1 mps 634 mmHg 83%
18:00 +22°C° 2.4 mm 1 mps 634 mmHg 88%
19:00 +20°C° 2.4 mm 2 mps 634 mmHg 93%
20:00 +18°C° 2.4 mm 2 mps 635 mmHg 97%
21:00 +18°C° 0.6 mm 2 mps 635 mmHg 97%
22:00 +19°C° 0.6 mm 1 mps 635 mmHg 97%
23:00 +19°C° 0.6 mm 1 mps 635 mmHg 97%

10 August, Tuesday

Time Temperature Precipitation Wind Pressure Humidity
00:00 +18°C° 0.1 mm 1 mps 635 mmHg 97%
01:00 +18°C° 0.1 mm 1 mps 635 mmHg 97%
02:00 +18°C° 0.1 mm 1 mps 635 mmHg 97%
03:00 +18°C° 0.1 mm 1 mps 635 mmHg 97%
04:00 +18°C° 0.1 mm 1 mps 635 mmHg 96%
05:00 +18°C° 0.1 mm 1 mps 635 mmHg 96%
06:00 +19°C° 0 mm 1 mps 636 mmHg 92%
07:00 +20°C° 0 mm 1 mps 636 mmHg 87%
08:00 +22°C° 0 mm 1 mps 637 mmHg 83%
09:00 +24°C° 0.1 mm 1 mps 637 mmHg 74%
10:00 +26°C° 0.1 mm 1 mps 637 mmHg 65%
11:00 +28°C° 0.1 mm 1 mps 637 mmHg 55%
12:00 +27°C° 0.3 mm 2 mps 637 mmHg 57%
13:00 +27°C° 0.3 mm 2 mps 636 mmHg 58%
14:00 +27°C° 0.3 mm 2 mps 636 mmHg 60%
15:00 +26°C° 0.7 mm 2 mps 636 mmHg 68%
16:00 +25°C° 0.7 mm 2 mps 635 mmHg 77%
17:00 +24°C° 0.7 mm 1 mps 635 mmHg 85%
18:00 +22°C° 1.1 mm 1 mps 635 mmHg 88%
19:00 +21°C° 1.1 mm 1 mps 635 mmHg 91%
20:00 +20°C° 1.1 mm 1 mps 635 mmHg 94%
21:00 +19°C° 1.1 mm 1 mps 636 mmHg 95%
22:00 +19°C° 1.1 mm 1 mps 636 mmHg 96%
23:00 +19°C° 1.1 mm 1 mps 636 mmHg 97%
Show more